Peoria, IL

12:39 PM CST on February 13, 2016 (GMT -0600)
Greater Peoria Regional

Weather History for KPIA - December, 2014

Change the Weather History Date:

Friday, December 26, 2014

  Actual Average Record
Temperature  
Mean Temperature 45 °F 26 °F  
Max Temperature 54 °F 33 °F 59 °F (1942)
Min Temperature 36 °F 18 °F -19 °F (1914)
Degree Days  
Heating Degree Days 20 39  
Month to date heating degree days 775 933  
Since 1 July heating degree days 2016 2081  
Cooling Degree Days 0 0  
Month to date cooling degree days 0 0  
Year to date cooling degree days 1156 1039  
Moisture  
Dew Point 38 °F    
Average Humidity 74    
Maximum Humidity 89    
Minimum Humidity 59    
Precipitation  
Precipitation 0.00 in 0.07 in 1.20 in (1942)
Month to date precipitation 1.22 2.09  
Year to date precipitation 39.76 36.16  
Snow  
Snow 0.00 in 0.30 in 5.40 in (2009)
Month to date snowfall T 5.9  
Since 1 July snowfall 1.3 7.0  
Snow Depth 0.00 in    
Sea Level Pressure  
Sea Level Pressure 30.01 in    
Wind  
Wind Speed 11 mph (South)    
Max Wind Speed 17 mph    
Max Gust Speed 22 mph    
Visibility 10 miles    
Events      
T = Trace of Precipitation, MM = Missing Value Source: NWS Daily Summary

Daily Weather History Graph

Daily Weather History Graph

Search for Another Location

Airport or City:

Trip Planner

Search our weather history database for the weather conditions in past years. The results will help you decide how hot, cold, wet, or windy it might be!

Date:

Astronomy

Dec. 26, 2014 Rise Set
Actual Time 7:21 AM CST 4:37 PM CST
Civil Twilight 6:50 AM CST 5:08 PM CST
Nautical Twilight 6:15 AM CST 5:43 PM CST
Astronomical Twilight 5:42 AM CST 6:16 PM CST
Moon 10:31 AM CST (12/26) 10:21 PM CST (12/26)
Length of Visible Light 10h 18m
Length of Day
9h 16m
Waxing Crescent, 28% of the Moon is Illuminated
Dec 26
Waxing Crescent
Dec 28
First Quarter
Jan 4
Full
Jan 13
Last Quarter
Jan 20
New

Hourly Weather History & Observations

Time (CST) Temp. Windchill Dew Point Humidity Pressure Visibility Wind Dir Wind Speed Gust Speed Precip Events Conditions
12:54 AM 39.0 °F 31.4 °F 34.0 °F 82% 30.00 in 10.0 mi South 12.7 mph - N/A   Clear
1:54 AM 37.9 °F 30.0 °F 33.1 °F 83% 30.00 in 10.0 mi South 12.7 mph - N/A   Clear
2:54 AM 37.9 °F 30.0 °F 33.1 °F 83% 30.00 in 10.0 mi South 12.7 mph - N/A   Clear
3:54 AM 37.9 °F 30.0 °F 33.1 °F 83% 30.01 in 10.0 mi South 12.7 mph - N/A   Clear
4:54 AM 37.0 °F 29.3 °F 33.1 °F 86% 30.00 in 10.0 mi South 11.5 mph - N/A   Clear
5:54 AM 37.0 °F 29.3 °F 32.0 °F 82% 30.01 in 10.0 mi South 11.5 mph - N/A   Clear
6:54 AM 36.0 °F 29.6 °F 32.0 °F 86% 30.03 in 10.0 mi South 8.1 mph - N/A   Clear
7:54 AM 37.0 °F 31.0 °F 33.1 °F 86% 30.03 in 10.0 mi South 8.1 mph - N/A   Clear
8:54 AM 41.0 °F 33.9 °F 35.1 °F 79% 30.04 in 10.0 mi South 12.7 mph - N/A   Clear
9:54 AM 43.0 °F 36.4 °F 36.0 °F 76% 30.06 in 10.0 mi SSW 12.7 mph - N/A   Clear
10:54 AM 46.0 °F 40.6 °F 37.9 °F 73% 30.04 in 10.0 mi South 11.5 mph - N/A   Clear
11:54 AM 51.1 °F - 39.0 °F 63% 30.02 in 10.0 mi SSW 10.4 mph - N/A   Clear
12:54 PM 53.1 °F - 39.0 °F 59% 30.01 in 10.0 mi SW 12.7 mph - N/A   Clear
1:54 PM 54.0 °F - 39.9 °F 59% 30.00 in 10.0 mi SW 12.7 mph - N/A   Clear
2:54 PM 54.0 °F - 39.9 °F 59% 30.00 in 10.0 mi SW 9.2 mph - N/A   Clear
3:54 PM 52.0 °F - 41.0 °F 66% 30.00 in 10.0 mi South 4.6 mph - N/A   Partly Cloudy
4:54 PM 50.0 °F - 41.0 °F 71% 30.00 in 10.0 mi South 8.1 mph - N/A   Scattered Clouds
5:54 PM 51.1 °F - 42.1 °F 71% 30.02 in 10.0 mi South 13.8 mph - N/A   Overcast
6:54 PM 50.0 °F - 42.1 °F 74% 30.01 in 10.0 mi South 8.1 mph - N/A   Overcast
7:54 PM 50.0 °F - 42.1 °F 74% 30.01 in 10.0 mi South 9.2 mph - N/A   Overcast
8:54 PM 48.0 °F - 42.1 °F 80% 30.01 in 10.0 mi South 10.4 mph - N/A   Clear
9:54 PM 46.9 °F - 41.0 °F 80% 30.01 in 10.0 mi South 10.4 mph - N/A   Clear
10:54 PM 46.9 °F - 42.1 °F 83% 30.02 in 10.0 mi South 11.5 mph - N/A   Mostly Cloudy
11:49 PM 48.2 °F - 42.8 °F 82% 30.00 in 10.0 mi South 9.2 mph - N/A   Overcast
11:54 PM 48.0 °F - 42.1 °F 80% 30.01 in 10.0 mi South 10.4 mph - N/A   Overcast